CZ-2C R/B (43084 NORAD) Tracking and Keplerian Element Data

This shows tracking and keplerian element data for the satellite.

Feedback or suggestion? Click here.




ElementValue
Catalog43084
NameCZ-2C R/B
Epoch Orbit434
Epoch Day23.61121439
Epoch Year2018
RAAN189.0008
Inclination34.6681
Eccentricity0.0102799
Argument of Perigee237.7297
Mean Anonmoly121.3411
Mean Motion15.04020529
Decay Rate4.38E-06
L11 43084U 17085D 18023.61121439 .00000438 00000-0 28901-4 0 9990
L22 43084 34.6681 189.0008 0102799 237.7297 121.3411 15.04020529 4342

Live tracking and technical data element details for CZ-2C R/B (NORAD 43084). CZ-2C R/B can be tracked NOW for your location showing map with azimuth and elevation plus other details from your city location.

Track the satellite on the map from your city or location and see movement details for azimuth, elevation, latitude, longitude, range, height, and movement on the map or in text.







IsCatalogInMostPopularTable: catalog: 43084, numindb: 165
Update: records affected: 1



GetName: 43084 CZ-2C R/B

Hit Count: updated at: Mon, 19 Nov 2018 10:58:35 GMT